Home   Weather   Homberg (Efze)   Past weeks

Flag for Germany Past Weather in Homberg (Efze), Hesse, Germany — Yesterday and Last 2 Weeks

Now
45 °F

Overcast.


Feels Like: 43 °F
Forecast: 35 / 50 °F
Wind: 5 mph from Northwest

Location: Fritzlar

Current Time: Apr 25, 2017 at 2:58:04 pm

Latest Report: Apr 25, 2017 at 1:00 pm


Visibility: 22 mi

Pressure: 29.76 "Hg

Humidity: 59%

Dew Point: 32 °F

Location of Homberg (Efze)Location

Past Weather in Homberg (Efze) — Graph

°F

Homberg (Efze) Temperature Yesterday

Maximum temperature yesterday: 59 °F (at 4:00 pm)
Minimum temperature yesterday: 27 °F (at 6:00 am)
Average temperature yesterday: 44 °F

High & Low Weather Summary for the Past Weeks

 TemperatureHumidityPressure
High63 °F (Apr 10, 1:00 pm)95% (Apr 24, 6:00 am)30.64 "Hg (Apr 24, 6:00 am)
Low26 °F (Apr 20, 7:00 am)33% (Apr 20, 6:00 pm)29.65 "Hg (Apr 25, 6:00 am)
Average44 °F66%30.16 "Hg
* Reported Apr 10 1:00 pm — Apr 25 1:00 pm, Homberg (Efze), Weather by CustomWeather, © 2017

Note: Actual official high and low records may vary slightly from our data, if they occured in-between our weather recording intervals... More about our weather records

Advertising

Homberg (Efze) Weather History for the Previous 24 Hours

Scroll right to see more
 ConditionsComfort  
Time TempWeatherWind HumidityBarometerVisibility
1:00 pm
Tue, Apr 25
45 °FOvercast.5 mph59%29.76 "Hg22 mi
12:00 pm45 °FOvercast.3 mph63%29.75 "Hg22 mi
10:00 am44 °FOvercast.3 mph74%29.72 "Hg19 mi
9:00 am42 °FOvercast.2 mph82%29.73 "Hg16 mi
7:00 am45 °FOvercast.3 mph73%29.67 "Hg12 mi
6:00 am40 °FOvercast.1 mph78%29.65 "Hg12 mi
4:00 am42 °FPassing clouds.N/A75%29.68 "Hg16 mi
3:00 am43 °FOvercast.1 mph76%29.70 "Hg16 mi
1:00 am45 °FPassing clouds.N/A68%29.74 "Hg16 mi
12:00 am44 °FPassing clouds.1 mph71%29.76 "Hg16 mi
10:00 pm
Mon, Apr 24
45 °FOvercast.2 mph68%29.81 "Hg19 mi
9:00 pm52 °FOvercast.2 mph48%29.80 "Hg22 mi
7:00 pm57 °FOvercast.6 mph36%29.83 "Hg25 mi
6:00 pm58 °FOvercast.6 mph36%29.85 "Hg25 mi
4:00 pm59 °FPartly sunny.6 mph33%29.89 "Hg25 mi
3:00 pm57 °FPartly sunny.6 mph39%29.92 "Hg25 mi
Weather by CustomWeather, © 2017

See weather overviewHow to use our weather pages